Location: Frankfurt am Main
(50.1109°N, 8.6821°E)
Time: 13:28:34
(UTC+01:00)

ISS - Pass Details

Date: 06 November 2021
Orbit: 417 x 422 km, 51.6° (Epoch: 07 December)

Event Time Altitude Azimuth Distance (km) Brightness Sun altitude
Exits shadow 05:36:03 46° 236° (SW) 573 -3.5 -17.5°
Maximum altitude 05:36:30 50° 207° (SSW) 540 -3.4 -17.4°
Drops below altitude 10° 05:39:45 10° 130° (SE) 1,494 -0.1 -16.9°
Sets 05:41:52 0° 125° (SE) 2,353 1.1 -16.5°
